Current weather by "City, St" or "zip code"  
 

Current Conditions: Spearfish / Clyde Ice, SD

Overcast


21.0 F

Last Updated on Oct 23 2020, 7:55 pm MDT
Humidity: 93%
Wind Speed: N 0.0 mph
Barometer 30.13 in
Dewpoint: 19.4 F
Visibility: 10.00 mi
Precip: --
Heat Index: NA
Wind Chill: NA
Current conditions at:

Spearfish / Clyde Ice, SD (KSPF)

Lat: 44.48333 Lon: 103.78333

Local Radar Image active severe weather and emergency alerts image image weather storm and storm spotter reports image weather observation monitoring service image
Local
Radar
Active
Alerts
Storm Reports Obs
Monitoring

Sign-up For Email & Text Message Weather Alert Notification Services



Advertise Here

Observation History for Spearfish / Clyde Ice, SD


Time Wind
(mph)
Vis
(mi)
Weather Precip (in) Temperature (F) Relative
Humidity
Wind
Chill
(F)
Heat
Index
(F)
Pressure
Air Dwpt altimeter
(in)
sea level
(mb)
Rmks
7:55 pm MDT N 0.0 10.00 Overcast -- 21.0 19.4 93% NA NA 30.13 M
6:55 pm MDT E 4.6 10.00 Overcast -- 19.0 17.6 93% 12 NA 30.15 M
5:55 pm MDT E 8.1 10.00 Fair -- 19.0 17.6 93% 9 NA 30.19 M
4:55 pm MDT E 10.4 10.00 Overcast -- 21.0 17.6 86% 10 NA 30.22 M
3:55 pm MDT E 6.9 10.00 Overcast -- 21.0 17.6 86% 12 NA 30.25 M
2:55 pm MDT E 8.1 10.00 Overcast -- 19.0 17.6 93% 9 NA 30.28 M
1:55 pm MDT E 6.9 10.00 Overcast -- 19.0 15.8 86% 10 NA 30.29 M
12:55 pm MDT NE 6.9 10.00 Overcast -- 18.0 14.0 86% 9 NA 30.33 M
11:55 am MDT N 0.0 10.00 Overcast -- 19.0 10.4 68% NA NA 30.37 M
10:55 am MDT N 0.0 10.00 A Few Clouds -- 19.0 10.4 68% NA NA 30.39 M
9:55 am MDT N 0.0 10.00 Partly Cloudy -- 16.0 10.4 79% NA NA 30.40 M
8:55 am MDT S 5.8 10.00 Overcast -- 12.0 6.8 79% 3 NA 30.42 M
7:55 am MDT SW 4.6 10.00 Overcast -- 14.0 10.4 85% 6 NA 30.42 M
6:55 am MDT NW 3.5 10.00 Overcast -- 16.0 12.2 86% NA NA 30.43 M
5:55 am MDT N 0.0 10.00 Overcast -- 16.0 12.2 86% NA NA 30.43 M
4:55 am MDT NW 4.6 10.00 Overcast -- 16.0 12.2 86% 9 NA 30.43 M
3:55 am MDT W 5.8 9.00 Overcast -- 16.0 14.0 93% 7 NA 30.43 M
2:55 am MDT NW 12.7 6.00 Fog/Mist -- 16.0 14.0 93% 2 NA 30.44 M
1:55 am MDT NW 9.2 G 16.1 3.00 Fog/Mist -- 18.0 15.8 93% 7 NA 30.43 M
12:55 am MDT NW 8.1 1.50 Fog/Mist -- 18.0 15.8 93% 8 NA 30.43 M
11:55 pm MDT NW 9.2 1.25 Fog/Mist -- 19.0 17.6 93% 8 NA 30.42 M
10:55 pm MDT NW 16.1 1.75 Fog/Mist -- 19.0 17.6 93% 4 NA 30.41 M
9:55 pm MDT N 16.1 G 21.9 1.75 Fog/Mist -- 21.0 19.4 93% 7 NA 30.39 M
8:55 pm MDT NW 9.2 5.00 Fog/Mist -- 21.0 21.2 100% 11 NA 30.38 M

Regional Weather Observation


Hulett Municipal Airport, WY (KW43)

NULL
68.0 F

Ellsworth Air Force Base, SD (KRCA)

Overcast
21.0 F

Rapid City, Rapid City Regional Airport, SD (KRAP)

Partly Cloudy
20.0 F

Buffalo, SD (K2WX)

NULL
32.0 F

Mondell Field, WY (KECS)

Fair
27.0 F

Custer, Custer County Airport, SD (KCUT)

Fog/Mist
18.0 F